Flight Track Log - Related Links

Times and Time Zones

All times are in EDT time to prevent confusion due to time zone crossing. See the SWA376 flight status page for this flight to view local times or setup timezone preferences in your user account.

Time Position Orientation Groundspeed Altitude Reporting Facility
EDT Latitude Longitude Course Direction KTS MPH feet Rate Location/Type
Mon 04:26:20 PM 36.0761 -115.1683 271° West 171 197 3,200  Level Los Angeles Center
Mon 04:26:51 PM 36.0764 -115.2000 271° West 171 197 4,200 1,673 Climbing Los Angeles Center
Mon 04:28:04 PM 36.0364 -115.2700 235° Southwest 236 272 6,100 2,115 Climbing Los Angeles Center
Mon 04:28:53 PM 35.9769 -115.2992 202° Southwest 273 314 8,500 2,448 Climbing Los Angeles Center
Mon 04:30:09 PM 35.8797 -115.3114 186° South 288 331 11,200 2,739 Climbing Los Angeles Center
Mon 04:31:11 PM 35.7817 -115.3067 178° South 329 379 14,800 3,000 Climbing Los Angeles Center
Mon 04:32:25 PM 35.6800 -115.3042 179° South 359 413 18,000 3,066 Climbing Los Angeles Center
Mon 04:33:28 PM 35.5914 -115.4125 225° Southwest 367 422 21,800 3,600 Climbing Los Angeles Center
Mon 04:34:30 PM 35.5064 -115.5275 228° Southwest 375 432 25,500 2,806 Climbing Los Angeles Center
Mon 04:35:32 PM 35.4453 -115.6089 227° Southwest 383 441 27,600 1,210 Climbing Los Angeles Center
Mon 04:36:34 PM 35.3467 -115.7311 225° Southwest 411 473 28,000 194 Climbing Los Angeles Center
Mon 04:37:36 PM 35.2547 -115.8325 222° Southwest 451 519 28,000  Level Los Angeles Center
Mon 04:38:38 PM 35.1625 -115.9378 223° Southwest 454 522 28,000  Level Los Angeles Center
Mon 04:39:40 PM 35.0881 -116.0219 223° Southwest 454 522 28,000  Level Los Angeles Center
Mon 04:40:42 PM 34.9764 -116.1464 222° Southwest 454 522 28,000  Level Los Angeles Center
Mon 04:41:44 PM 34.8833 -116.2508 223° Southwest 453 521 28,000  Level Los Angeles Center
Mon 04:42:46 PM 34.7717 -116.3756 223° Southwest 454 522 28,000  Level Los Angeles Center
Mon 04:43:49 PM 34.6786 -116.4794 223° Southwest 453 521 28,000  Level Los Angeles Center
Mon 04:44:51 PM 34.5844 -116.5828 222° Southwest 455 524 28,000  Level Los Angeles Center
Mon 04:45:53 PM 34.4900 -116.6878 223° Southwest 458 527 28,000 -435 Level Los Angeles Center
Mon 04:46:55 PM 34.3953 -116.7908 222° Southwest 456 525 27,100 -1,887 Descending Los Angeles Center
Mon 04:47:57 PM 34.3044 -116.8914 222° Southwest 445 512 24,100 -2,855 Descending Los Angeles Center
Mon 04:48:59 PM 34.2014 -117.0047 222° Southwest 421 484 21,200 -2,371 Descending Los Angeles Center
Mon 04:50:01 PM 34.1183 -117.0953 222° Southwest 392 451 19,200 -1,451 Descending Los Angeles Center
Mon 04:50:30 PM 34.0833 -117.1333 222° Southwest 359 413 19,000 -809 Descending Southern California TRACON
Mon 04:51:30 PM 34.0167 -117.2000 220° Southwest 328 377 18,000 -1,300 Descending Southern California TRACON
Mon 04:52:30 PM 33.9333 -117.2500 206° Southwest 327 376 16,400 -1,684 Descending Southern California TRACON
Mon 04:53:24 PM 33.9500 -117.3500 281° West 301 346 14,800 -1,737 Descending Southern California TRACON
Mon 04:54:24 PM 33.9667 -117.4500 281° West 297 342 13,100 -1,636 Descending Southern California TRACON
Mon 04:55:25 PM 33.9833 -117.5333 284° West 291 335 11,500 -1,339 Descending Southern California TRACON
Mon 04:56:25 PM 34.0167 -117.6333 292° West 330 380 10,400 -1,000 Descending Southern California TRACON
Mon 04:57:25 PM 34.0167 -117.7333 270° West 273 314 9,500 -694 Descending Southern California TRACON
Mon 04:58:26 PM 34.0167 -117.8167 270° West 239 275 9,000 -645 Descending Southern California TRACON
Mon 04:59:26 PM 34.0000 -117.8833 253° West 191 220 8,200 -1,100 Descending Southern California TRACON
Mon 05:00:26 PM 34.0000 -117.9500 270° West 207 238 6,800 -1,150 Descending Southern California TRACON
Mon 05:01:26 PM 33.9833 -118.0167 253° West 200 230 5,900 -810 Descending Southern California TRACON
Mon 05:02:32 PM 33.9833 -118.0833 270° West 190 219 5,100 -711 Descending Southern California TRACON
Mon 05:03:41 PM 33.9789 -118.1431 265° West 188 216 4,300 -962 Descending Los Angeles Center
Mon 05:04:43 PM 33.9711 -118.2178 263° West 188 216 3,000 -1,065 Descending Los Angeles Center
Mon 05:05:45 PM 33.9642 -118.2797 262° West 189 217 2,100 -871 Descending Los Angeles Center
Mon 05:06:47 PM 33.9592 -118.3356 264° West 180 207 1,200 -774 Descending Los Angeles Center
Mon 05:07:49 PM 33.9558 -118.3789 265° West 150 173 500 -532 Descending Los Angeles Center
Mon 05:08:51 PM 33.9506 -118.4256 262° West 139 160 100 -387 Descending Los Angeles Center
Mon 05:10:00 PM 33.9425 -118.4081 259° West  Level Estimated

Login

Don't have an account? Register now (free) for customized features, flight alerts, and more!